When you browse on this site, cookies collect data to enhance your experience and personalize the content and advertising you see.
Visit our Privacy Policy to learn more. By continuing to use the site, you agree to this use of cookies and data.

Hourly Weather Winchester

Today, 8 July, Wednesday

Time Temperature Precipitation Wind Pressure Humidity
00:00 +14°C° 0.1 mm 5 mps 756 mmHg 91%
01:00 +15°C° 0 mm 5 mps 756 mmHg 92%
02:00 +15°C° 0 mm 6 mps 755 mmHg 92%
03:00 +15°C° 0 mm 6 mps 755 mmHg 92%
04:00 +15°C° 0.2 mm 5 mps 755 mmHg 93%
05:00 +15°C° 0.2 mm 5 mps 755 mmHg 94%
06:00 +15°C° 0.2 mm 5 mps 755 mmHg 95%
07:00 +15°C° 0.5 mm 5 mps 755 mmHg 96%
08:00 +15°C° 0.5 mm 4 mps 755 mmHg 96%
09:00 +15°C° 0.5 mm 4 mps 756 mmHg 96%
10:00 +17°C° 0.4 mm 4 mps 756 mmHg 96%
11:00 +17°C° 0.4 mm 4 mps 756 mmHg 96%
12:00 +17°C° 0.4 mm 3 mps 756 mmHg 96%
13:00 +17°C° 0.1 mm 3 mps 756 mmHg 94%
14:00 +18°C° 0.1 mm 3 mps 756 mmHg 92%
15:00 +18°C° 0.1 mm 3 mps 756 mmHg 91%
16:00 +18°C° 0.1 mm 3 mps 756 mmHg 90%
17:00 +19°C° 0.1 mm 3 mps 756 mmHg 89%
18:00 +19°C° 0.1 mm 3 mps 756 mmHg 88%
19:00 +18°C° 0 mm 3 mps 756 mmHg 91%
20:00 +18°C° 0 mm 3 mps 756 mmHg 93%
21:00 +17°C° 0 mm 3 mps 756 mmHg 96%
22:00 +17°C° 0 mm 3 mps 756 mmHg 96%
23:00 +17°C° 0 mm 4 mps 755 mmHg 96%

Tomorrow, 9 July, Thursday

Time Temperature Precipitation Wind Pressure Humidity
00:00 +17°C° 0 mm 4 mps 755 mmHg 96%
01:00 +15°C° 0.2 mm 4 mps 755 mmHg 96%
02:00 +15°C° 0.2 mm 5 mps 755 mmHg 96%
03:00 +15°C° 0.2 mm 5 mps 754 mmHg 96%
04:00 +15°C° 0.1 mm 5 mps 754 mmHg 95%
05:00 +15°C° 0.1 mm 5 mps 754 mmHg 95%
06:00 +15°C° 0.1 mm 5 mps 754 mmHg 94%
07:00 +16°C° 0 mm 5 mps 754 mmHg 92%
08:00 +17°C° 0 mm 6 mps 754 mmHg 90%
09:00 +17°C° 0 mm 6 mps 754 mmHg 88%
10:00 +19°C° 0.1 mm 6 mps 754 mmHg 86%
11:00 +19°C° 0.1 mm 6 mps 753 mmHg 84%
12:00 +20°C° 0.1 mm 7 mps 753 mmHg 82%
13:00 +20°C° 0.2 mm 7 mps 753 mmHg 83%
14:00 +18°C° 0.2 mm 7 mps 753 mmHg 84%
15:00 +18°C° 0.2 mm 7 mps 753 mmHg 85%
16:00 +18°C° 0.1 mm 7 mps 753 mmHg 85%
17:00 +19°C° 0.1 mm 6 mps 752 mmHg 86%
18:00 +19°C° 0.1 mm 6 mps 752 mmHg 87%
19:00 +17°C° 0.1 mm 5 mps 752 mmHg 89%
20:00 +17°C° 0.1 mm 4 mps 753 mmHg 91%
21:00 +17°C° 0.1 mm 4 mps 753 mmHg 93%
22:00 +15°C° 0 mm 4 mps 753 mmHg 93%
23:00 +15°C° 0 mm 4 mps 753 mmHg 93%

Day after tomorrow, 10 July, Friday

Time Temperature Precipitation Wind Pressure Humidity
00:00 +14°C° 0 mm 4 mps 753 mmHg 93%
01:00 +14°C° 0 mm 4 mps 753 mmHg 93%
02:00 +13°C° 0 mm 4 mps 753 mmHg 93%
03:00 +12°C° 0 mm 5 mps 754 mmHg 93%
04:00 +12°C° 0 mm 5 mps 754 mmHg 91%
05:00 +12°C° 0 mm 5 mps 754 mmHg 90%
06:00 +12°C° 0 mm 5 mps 755 mmHg 88%
07:00 +13°C° 0 mm 5 mps 755 mmHg 80%
08:00 +14°C° 0 mm 5 mps 756 mmHg 73%
09:00 +15°C° 0 mm 5 mps 756 mmHg 65%
10:00 +16°C° 0 mm 6 mps 757 mmHg 62%
11:00 +16°C° 0 mm 6 mps 757 mmHg 59%
12:00 +17°C° 0 mm 6 mps 757 mmHg 57%
13:00 +17°C° 0 mm 6 mps 757 mmHg 57%
14:00 +17°C° 0 mm 6 mps 758 mmHg 57%
15:00 +19°C° 0 mm 6 mps 758 mmHg 57%
16:00 +17°C° 0.1 mm 5 mps 758 mmHg 60%
17:00 +17°C° 0.1 mm 5 mps 758 mmHg 63%
18:00 +16°C° 0.1 mm 5 mps 759 mmHg 67%
19:00 +15°C° 0 mm 5 mps 759 mmHg 71%
20:00 +13°C° 0 mm 4 mps 760 mmHg 75%
21:00 +11°C° 0 mm 3 mps 761 mmHg 79%
22:00 +11°C° 0 mm 3 mps 761 mmHg 81%
23:00 +10°C° 0 mm 3 mps 761 mmHg 83%

11 July, Saturday

Time Temperature Precipitation Wind Pressure Humidity
00:00 +9°C° 0 mm 3 mps 761 mmHg 85%
01:00 +9°C° 0 mm 3 mps 761 mmHg 88%
02:00 +8°C° 0 mm 3 mps 762 mmHg 90%
03:00 +8°C° 0 mm 3 mps 762 mmHg 92%
04:00 +9°C° 0 mm 3 mps 762 mmHg 88%
05:00 +8°C° 0 mm 4 mps 762 mmHg 83%
06:00 +10°C° 0 mm 4 mps 763 mmHg 79%
07:00 +12°C° 0 mm 4 mps 763 mmHg 73%
08:00 +14°C° 0 mm 4 mps 764 mmHg 68%
09:00 +15°C° 0 mm 4 mps 764 mmHg 62%
10:00 +17°C° 0 mm 4 mps 764 mmHg 59%
11:00 +18°C° 0 mm 4 mps 764 mmHg 56%
12:00 +19°C° 0 mm 4 mps 764 mmHg 52%
13:00 +19°C° 0 mm 4 mps 764 mmHg 53%
14:00 +19°C° 0 mm 4 mps 764 mmHg 53%
15:00 +20°C° 0 mm 3 mps 764 mmHg 53%
16:00 +19°C° 0 mm 3 mps 764 mmHg 56%
17:00 +19°C° 0 mm 3 mps 764 mmHg 59%
18:00 +19°C° 0 mm 3 mps 764 mmHg 62%
19:00 +17°C° 0 mm 2 mps 764 mmHg 68%
20:00 +15°C° 0 mm 2 mps 764 mmHg 75%
21:00 +13°C° 0 mm 2 mps 765 mmHg 82%
22:00 +13°C° 0 mm 2 mps 765 mmHg 84%
23:00 +12°C° 0 mm 2 mps 765 mmHg 86%

12 July, Sunday

Time Temperature Precipitation Wind Pressure Humidity
00:00 +12°C° 0 mm 2 mps 765 mmHg 88%
01:00 +10°C° 0 mm 2 mps 764 mmHg 88%
02:00 +10°C° 0 mm 2 mps 764 mmHg 89%
03:00 +10°C° 0 mm 2 mps 764 mmHg 90%
04:00 +10°C° 0 mm 2 mps 765 mmHg 87%
05:00 +12°C° 0 mm 2 mps 765 mmHg 84%
06:00 +13°C° 0 mm 1 mps 765 mmHg 81%
07:00 +15°C° 0 mm 1 mps 765 mmHg 75%
08:00 +18°C° 0 mm 1 mps 765 mmHg 68%
09:00 +20°C° 0 mm 1 mps 765 mmHg 61%
10:00 +21°C° 0 mm 1 mps 765 mmHg 58%
11:00 +22°C° 0 mm 1 mps 765 mmHg 55%
12:00 +23°C° 0 mm 1 mps 765 mmHg 52%
13:00 +23°C° 0 mm 1 mps 765 mmHg 52%
14:00 +23°C° 0 mm 1 mps 765 mmHg 52%
15:00 +23°C° 0 mm 1 mps 764 mmHg 52%
16:00 +21°C° 0 mm 2 mps 764 mmHg 56%
17:00 +21°C° 0 mm 2 mps 764 mmHg 60%
18:00 +20°C° 0 mm 2 mps 764 mmHg 63%
19:00 +18°C° 0 mm 2 mps 764 mmHg 70%
20:00 +16°C° 0 mm 2 mps 764 mmHg 76%
21:00 +14°C° 0 mm 2 mps 764 mmHg 83%
22:00 +14°C° 0 mm 1 mps 764 mmHg 84%
23:00 +13°C° 0 mm 1 mps 763 mmHg 85%

13 July, Monday

Time Temperature Precipitation Wind Pressure Humidity
00:00 +13°C° 0 mm 1 mps 763 mmHg 87%
01:00 +13°C° 0 mm 1 mps 763 mmHg 87%
02:00 +12°C° 0 mm 1 mps 763 mmHg 87%
03:00 +12°C° 0 mm 1 mps 762 mmHg 87%
04:00 +13°C° 0 mm 1 mps 762 mmHg 85%
05:00 +14°C° 0 mm 1 mps 762 mmHg 82%
06:00 +15°C° 0 mm 1 mps 762 mmHg 79%
07:00 +16°C° 0 mm 1 mps 762 mmHg 74%
08:00 +18°C° 0 mm 2 mps 762 mmHg 68%
09:00 +19°C° 0 mm 2 mps 762 mmHg 62%
10:00 +20°C° 0 mm 3 mps 762 mmHg 58%
11:00 +21°C° 0 mm 3 mps 762 mmHg 54%
12:00 +22°C° 0 mm 4 mps 762 mmHg 50%
13:00 +22°C° 0 mm 4 mps 761 mmHg 50%
14:00 +22°C° 0 mm 4 mps 761 mmHg 50%
15:00 +22°C° 0 mm 5 mps 760 mmHg 50%
16:00 +21°C° 0 mm 5 mps 760 mmHg 55%
17:00 +20°C° 0 mm 4 mps 760 mmHg 60%
18:00 +19°C° 0 mm 4 mps 760 mmHg 65%
19:00 +18°C° 0 mm 4 mps 760 mmHg 73%
20:00 +16°C° 0 mm 3 mps 759 mmHg 81%
21:00 +14°C° 0 mm 3 mps 759 mmHg 89%
22:00 +13°C° 0 mm 3 mps 759 mmHg 91%
23:00 +13°C° 0 mm 3 mps 759 mmHg 93%
Show more